Simultaneous Nadir Overpasses (SNOs) Predictions

Prediction of SNOs between AURA and NPP Satellite Orbit:

Table of predicted SNOs for the next 14.0 days since TLE Epoch: 9/25/2020
Index Date (AURA) Time (AURA) Lat,Lon (AURA) SZA (AURA ) Date (NPP) Time (NPP) Lat,Lon (NPP) SZA (NPP ) Distance(km) Time Diff (sec)
1 09/27/2020 02:52:12 79.36, 32.72 93.96 09/27/2020 02:51:04 79.37, 32.81 93.99 1.97 68
2 09/27/2020 03:41:34 -79.56,-158.28 86.32 09/27/2020 03:41:44 -79.56,-158.37 86.31 1.94 10
3 09/29/2020 19:08:40 79.42, 148.97 94.87 09/29/2020 19:07:57 79.42, 148.93 94.90 0.72 43
4 09/29/2020 19:58:00 -79.69, -41.47 85.52 09/29/2020 19:58:34 -79.70, -41.39 85.56 1.67 34
5 10/02/2020 11:25:08 79.47, -94.82 95.78 10/02/2020 11:24:50 79.46, -94.95 95.82 2.87 18
6 10/02/2020 12:14:28 -79.74, 74.78 84.60 10/02/2020 12:15:27 -79.74, 74.75 84.64 0.60 59
7 10/05/2020 02:52:16 -79.30,-147.73 83.03 10/05/2020 02:51:05 -79.29,-147.79 82.96 1.29 71
8 10/05/2020 03:41:33 79.63, 22.17 96.53 10/05/2020 03:41:39 79.63, 22.26 96.51 1.92 6
9 10/07/2020 19:08:42 -79.38, -31.31 82.17 10/07/2020 19:07:56 -79.37, -31.43 82.11 2.55 46
